Kaukura Airport


Codes: NTGK/KKR
Name: Kaukura Airport
City:
Country: French Polynesia
Elevation: 11 ft.
Wikipedia:

Photos at Kaukura Airport


   Photos courtesy of SpottingLog. You can add your own sightings and photos by signing up for a free trial today.



No photos found.

Weather at Kaukura Airport


Time (UTC)DescriptionTempratureWindCloud coverageVisibilityPressureHumidity
19-Apr-2024 03:00Light Rain29°C20 mph, E10%10000m1011hPa77%
19-Apr-2024 06:00Light Rain29°C20 mph, E20%10000m1012hPa78%
19-Apr-2024 09:00Light Rain28°C20 mph, E70%10000m1012hPa78%
19-Apr-2024 12:00Light Rain28°C20 mph, E100%10000m1012hPa77%
19-Apr-2024 15:00Light Rain28°C20 mph, E98%10000m1011hPa78%
19-Apr-2024 18:00Light Rain28°C22 mph, E68%10000m1013hPa77%
19-Apr-2024 21:00Light Rain28°C22 mph, E67%10000m1012hPa77%
20-Apr-2024 00:00Light Rain28°C18 mph, E65%10000m1010hPa77%
20-Apr-2024 03:00Light Rain28°C18 mph, E82%10000m1011hPa77%
20-Apr-2024 06:00Light Rain28°C18 mph, E60%10000m1013hPa77%
20-Apr-2024 09:00Light Rain28°C18 mph, E12%10000m1013hPa79%
20-Apr-2024 12:00Light Rain28°C18 mph, E22%10000m1011hPa79%
20-Apr-2024 15:00Light Rain28°C20 mph, E48%10000m1011hPa78%
20-Apr-2024 18:00Light Rain28°C20 mph, E60%10000m1013hPa77%
20-Apr-2024 21:00Light Rain28°C20 mph, E96%10000m1012hPa77%
21-Apr-2024 00:00Light Rain28°C18 mph, E98%10000m1010hPa79%
21-Apr-2024 03:00Light Rain27°C18 mph, E100%10000m1011hPa80%
21-Apr-2024 06:00Light Rain28°C16 mph, E100%10000m1013hPa80%
21-Apr-2024 09:00Moderate Rain28°C13 mph, E100%10000m1013hPa82%
21-Apr-2024 12:00Moderate Rain27°C11 mph, SE100%10000m1012hPa81%
21-Apr-2024 15:00Moderate Rain27°C20 mph, SE100%10000m1012hPa83%
21-Apr-2024 18:00Light Rain27°C22 mph, E100%10000m1014hPa80%
21-Apr-2024 21:00Overcast Clouds27°C25 mph, E100%10000m1013hPa79%
22-Apr-2024 00:00Light Rain27°C20 mph, E99%10000m1011hPa78%
22-Apr-2024 03:00Moderate Rain27°C18 mph, E100%5377m1012hPa78%
22-Apr-2024 06:00Moderate Rain28°C18 mph, E100%10000m1013hPa73%
22-Apr-2024 09:00Overcast Clouds28°C13 mph, E100%10000m1013hPa69%
22-Apr-2024 12:00Overcast Clouds28°C11 mph, E100%10000m1012hPa68%
22-Apr-2024 15:00Overcast Clouds28°C13 mph, E100%10000m1011hPa74%
22-Apr-2024 18:00Light Rain28°C13 mph, E94%10000m1012hPa76%
22-Apr-2024 21:00Light Rain27°C16 mph, SE90%6383m1012hPa79%
23-Apr-2024 00:00Light Rain28°C13 mph, E92%10000m1010hPa76%
23-Apr-2024 03:00Light Rain27°C13 mph, E97%10000m1010hPa79%
23-Apr-2024 06:00Light Rain28°C13 mph, E85%10000m1012hPa77%
23-Apr-2024 09:00Light Rain28°C13 mph, E73%10000m1011hPa78%
23-Apr-2024 12:00Light Rain28°C11 mph, E77%10000m1010hPa78%
23-Apr-2024 15:00Light Rain28°C11 mph, E13%10000m1010hPa76%
23-Apr-2024 18:00Clear Sky28°C11 mph, E10%10000m1011hPa74%
23-Apr-2024 21:00Clear Sky28°C11 mph, E6%10000m1011hPa73%
24-Apr-2024 00:00Clear Sky28°C9 mph, E9%10000m1009hPa73%